Temperature
10 10 10 10 9 9 9 9 9 9 9 9 9 9 9 9 9 8 8 8 8 7 7 6 6 6 6 6 5 5 5 5 5 5 5 5 5 5 5 6 6 6 6
10 10 10 9 9 9 9 9 9 9 9 9 9 9 9 9 9 8 8 8 8 7 7 6 6 6 5 5 5 5 5 5 5 5 5 5 5 5 5 5 5 5 5
10 10 10 9 9 9 9 9 9 9 9 9 9 9 9 9 9 8 8 8 8 7 7 7 6 6 5 5 5 5 5 4 4 4 4 4 4 4 4 4 5 5 5
10 10 10 9 9 9 9 9 9 9 9 9 9 9 9 9 9 8 8 8 8 7 7 7 7 6 6 5 5 4 4 4 4 4 4 4 4 4 4 4 4 4 4
10 10 9 9 9 9 9 9 9 9 9 9 9 9 9 9 9 8 8 8 7 7 7 7 6 6 6 6 5 5 4 4 3 3 3 3 3 3 3 4 4 4 4
10 10 10 9 9 9 9 9 9 9 9 9 9 9 9 9 9 8 8 8 7 7 7 6 6 6 6 6 6 5 4 3 3 3 3 3 3 3 3 3 3 3 3
10 10 10 9 9 9 9 9 9 9 9 9 9 9 9 9 8 8 8 7 7 7 7 6 6 6 6 5 5 5 5 4 3 3 2 2 2 2 2 3 3 3 3
10 10 10 9 9 9 9 9 9 9 8 8 8 8 8 8 8 8 8 7 7 7 6 6 6 5 5 5 5 5 5 4 3 2 2 2 2 2 2 2 2 2 2
10 10 10 9 9 9 9 9 9 8 8 8 8 8 8 8 8 8 8 7 7 6 6 6 5 5 5 5 5 4 4 4 3 2 1 1 1 1 1 1 2 2 2
10 10 10 9 9 9 9 9 9 8 8 8 8 8 8 7 7 7 7 7 7 6 6 5 5 5 5 4 4 4 3 3 2 1 1 1 1 1 1 1 1 1 1
11 10 10 10 9 9 9 9 9 8 8 8 8 8 8 7 7 6 6 7 6 6 6 5 5 5 4 4 3 3 3 2 2 1 1 0 0 0 0 0 0 0 0
11 10 10 10 9 9 9 9 8 8 8 8 8 8 7 7 7 6 6 6 6 6 6 5 5 4 4 3 3 2 2 2 1 1 0 0 -0 -1 -1 -1 -1 -1 -1
11 11 10 10 9 9 9 9 8 8 8 8 8 7 7 7 6 6 5 5 5 5 5 5 4 4 3 2 2 1 1 1 1 0 -0 -0 -1 -1 -1 -1 -2 -1 -1
11 11 10 10 9 9 9 9 8 8 8 8 7 7 7 7 6 5 5 4 4 4 4 4 4 3 2 1 1 1 0 0 -0 -0 -1 -1 -1 -1 -2 -2 -2 -2 -2
11 10 10 10 9 9 9 8 8 8 8 8 7 7 7 6 6 5 5 4 3 2 2 3 3 2 1 1 0 0 -0 -1 -1 -1 -1 -2 -2 -2 -3 -3 -3 -3 -3
10 10 10 9 9 9 9 8 8 8 8 7 7 7 6 6 5 5 4 4 3 2 1 2 2 1 1 0 -0 -1 -1 -1 -1 -2 -2 -2 -3 -3 -3 -3 -3 -4 -3
10 10 10 9 9 9 8 8 8 7 7 7 7 6 6 5 5 4 4 3 3 2 1 1 1 1 0 -0 -1 -1 -1 -2 -2 -2 -3 -3 -3 -3 -4 -4 -4 -4 -4
10 9 9 9 9 8 8 8 8 7 7 7 6 6 5 5 4 4 3 3 2 1 1 0 0 0 -0 -1 -1 -2 -2 -2 -3 -3 -3 -4 -4 -4 -4 -4 -4 -4 -4
9 9 9 9 8 8 8 7 7 7 6 6 6 5 5 4 4 3 3 2 1 1 0 -0 -0 -1 -1 -2 -2 -2 -3 -3 -3 -4 -4 -4 -4 -4 -5 -5 -5 -5 -5
9 9 8 8 8 8 7 7 7 6 6 5 5 5 4 4 3 3 2 1 1 0 -0 -1 -1 -2 -2 -2 -3 -4 -4 -4 -4 -4 -4 -5 -5 -5 -5 -5 -5 -5 -5
9 8 8 8 8 7 7 7 6 6 5 5 4 4 4 3 2 2 1 1 0 -1 -1 -2 -2 -2 -3 -3 -4 -4 -5 -5 -5 -5 -5 -5 -5 -5 -5 -5 -5 -5 -5
8 8 8 8 7 7 7 6 6 5 5 4 4 4 3 2 2 1 1 0 -1 -1 -2 -2 -3 -3 -4 -4 -5 -5 -5 -6 -6 -6 -6 -6 -6 -6 -6 -6 -6 -6 -6
8 8 7 7 7 6 6 6 5 5 4 4 3 3 2 2 1 1 0 -0 -1 -2 -2 -3 -4 -4 -4 -5 -5 -6 -6 -6 -6 -6 -7 -6 -6 -6 -6 -6 -6 -6 -7
8 7 7 7 6 6 5 5 4 4 4 3 3 2 2 1 1 -0 -1 -1 -2 -2 -3 -3 -4 -4 -5 -5 -6 -6 -6 -7 -7 -7 -7 -7 -7 -7 -7 -6 -7 -7 -7
7 7 6 6 6 5 5 4 4 3 3 2 2 1 1 0 -0 -1 -1 -2 -3 -3 -4 -4 -5 -5 -6 -6 -6 -7 -7 -7 -7 -7 -7 -8 -8 -8 -7 -7 -7 -7 -8
7 6 6 5 5 4 4 3 3 3 2 2 1 1 -0 -1 -1 -2 -3 -3 -4 -4 -5 -5 -6 -6 -6 -7 -7 -7 -8 -8 -8 -8 -8 -9 -9 -9 -9 -8 -7 -8 -8
Wind_Speed
5 5 4 4 3 3 2 2 3 3 4 4 5 4 4 4 4 5 6 7 7 6 6 7 8 8 8 9 9 10 10 11 11 11 12 12 12 13 13 13 13 13 14
9 6 5 4 4 4 3 3 2 2 2 3 4 4 4 4 4 5 5 6 7 7 7 7 7 8 8 9 9 9 10 10 11 11 11 12 12 13 13 13 13 14 14
11 9 5 4 5 5 4 4 3 3 2 2 3 4 4 4 4 4 5 6 7 8 8 7 7 8 8 9 9 9 10 10 10 11 11 12 12 13 13 14 14 14 14
14 10 6 5 7 6 5 3 2 2 2 2 2 2 3 4 4 4 4 5 6 7 7 8 8 8 8 9 10 10 10 10 10 11 12 12 13 13 13 14 14 14 15
15 12 8 7 8 6 4 3 2 2 1 1 1 2 3 3 3 3 4 5 5 6 6 7 8 8 8 9 10 11 11 11 11 11 12 13 13 13 14 14 15 15 15
15 13 8 8 9 5 3 3 3 2 2 1 2 2 2 2 2 3 2 3 4 4 5 5 7 7 8 9 10 11 11 12 12 12 13 13 14 14 15 15 16 16 16
16 13 8 7 7 5 5 5 3 3 2 1 2 2 3 2 2 2 2 2 2 3 3 4 5 5 6 8 10 11 12 13 13 13 14 14 15 15 16 16 16 17 17
16 14 10 7 7 5 6 5 4 3 2 2 3 2 2 4 2 1 1 1 1 2 3 3 4 4 5 6 8 10 12 13 13 14 15 15 16 17 17 17 17 17 17
16 14 13 10 8 7 7 6 6 6 4 1 1 3 3 3 3 3 2 1 2 1 2 4 4 5 5 6 7 9 11 13 14 15 16 16 17 18 18 18 19 19 19
14 15 14 12 9 7 7 7 6 5 5 3 2 1 2 3 2 3 3 2 3 3 3 3 5 6 6 6 7 9 11 13 14 16 17 18 18 19 20 20 20 20 20
11 13 13 11 9 7 8 8 7 6 5 5 4 3 2 1 2 3 4 4 3 3 3 4 5 6 7 6 7 9 11 13 15 16 18 19 19 20 21 21 21 21 21
7 10 11 10 9 8 8 8 8 8 6 5 4 4 4 3 4 4 5 4 4 4 3 4 4 6 7 7 7 10 12 14 16 17 18 19 20 20 21 21 22 22 22
7 10 9 9 8 8 9 8 7 7 7 6 6 5 5 4 4 4 3 3 3 3 4 3 4 6 7 7 8 11 12 14 16 18 19 20 20 21 21 22 22 23 23
10 10 10 10 9 9 9 8 6 6 6 7 7 6 4 4 4 4 4 3 2 3 3 5 3 5 7 8 10 12 12 15 17 19 20 20 21 21 22 22 23 23 24
7 10 10 10 9 9 9 8 6 6 6 6 6 6 5 4 4 4 4 4 4 4 5 4 3 3 6 9 11 11 12 15 18 19 20 21 21 22 22 23 23 24 24
8 9 9 9 9 8 8 8 6 6 7 6 5 6 5 4 4 4 4 4 4 5 5 4 5 4 6 9 12 13 14 17 18 19 21 21 22 22 23 23 24 24 24
9 10 10 9 9 9 8 8 7 7 7 6 5 6 6 5 4 4 4 4 5 5 7 6 4 4 4 6 10 13 14 14 15 19 21 22 22 22 23 23 24 24 24
9 9 9 8 8 8 8 9 8 8 8 7 7 6 6 5 5 4 4 5 5 6 6 8 5 4 6 6 7 7 10 12 13 18 21 21 21 22 22 23 23 24 24
8 8 8 8 8 8 8 8 8 7 7 7 7 7 6 6 6 5 5 6 5 5 6 6 6 4 4 5 5 6 7 8 13 16 18 19 19 21 22 23 23 23 22
8 8 8 7 7 7 7 7 6 6 6 5 5 6 6 7 7 6 6 6 5 5 5 6 7 5 5 5 4 5 6 5 7 10 14 16 18 21 21 22 22 22 22
7 7 7 6 6 6 6 7 6 6 5 4 4 5 5 7 8 7 5 5 5 5 5 5 6 5 5 4 5 5 7 7 7 6 6 8 9 10 14 18 19 20 20
6 6 6 6 6 4 7 9 7 6 5 5 4 4 4 6 8 9 11 10 8 6 5 5 5 6 7 6 6 6 6 7 6 3 4 6 5 7 8 11 17 19 19
6 6 6 6 5 4 6 7 8 5 5 4 4 3 3 4 5 4 7 9 9 12 11 7 7 7 7 6 6 7 7 8 8 4 4 6 4 6 7 13 18 18 18
6 5 5 5 4 3 5 6 6 4 3 3 3 3 4 4 4 4 4 4 5 7 9 6 6 8 7 7 6 6 7 7 6 5 4 5 4 5 7 10 15 15 16
5 4 4 5 4 2 3 4 5 3 2 2 2 2 2 3 7 8 4 5 6 6 9 12 13 12 13 13 11 5 4 5 6 4 3 3 3 4 5 5 9 13 16
6 6 5 4 4 3 3 4 4 3 2 1 1 1 3 5 8 9 4 4 6 6 5 5 6 8 8 9 11 5 3 5 5 4 2 2 3 3 4 4 4 7 10
Wind_Direction
172 175 181 184 177 154 129 102 77 60 47 42 43 44 35 31 31 27 16 18 27 29 33 32 29 29 29 27 23 18 14 10 7 4 2 360 357 354 350 346 344 342 340
178 178 184 186 187 177 163 139 113 88 61 52 40 36 33 32 38 38 33 35 36 36 39 35 30 26 24 20 17 12 10 6 1 359 356 354 352 349 346 344 342 340 337
185 183 181 186 192 180 156 129 108 89 69 53 34 26 31 34 40 42 49 54 49 45 45 38 30 25 19 13 9 5 1 357 354 352 351 349 347 344 342 341 339 337 335
189 182 180 188 188 170 153 133 117 96 68 51 25 13 20 30 38 49 64 67 64 56 47 40 33 24 13 6 360 357 353 348 347 345 345 343 341 339 337 337 336 334 333
189 183 184 187 177 161 154 143 118 128 107 51 31 28 17 21 27 55 66 72 71 64 53 39 32 21 9 360 353 348 345 342 341 339 339 336 335 335 334 332 331 331 330
189 184 182 179 170 155 154 146 137 111 110 105 63 35 11 7 34 51 61 72 69 64 54 39 25 15 7 359 352 345 340 337 336 334 333 331 330 329 328 327 326 325 325
187 183 180 173 171 172 172 159 141 129 102 93 79 14 359 14 37 39 43 59 52 50 44 28 13 5 359 355 350 343 338 333 331 329 327 326 324 323 322 322 321 320 320
187 187 181 178 175 169 164 163 151 140 126 104 125 93 352 338 341 6 357 12 354 4 4 350 344 341 339 340 337 336 333 328 326 324 323 322 320 318 317 317 317 316 316
189 188 186 180 177 175 178 178 168 159 163 146 128 145 156 240 294 313 310 314 314 311 314 312 313 320 320 323 326 326 327 326 323 321 319 318 316 315 314 314 314 313 313
190 189 185 183 180 179 179 180 175 167 154 168 164 139 160 164 179 293 307 301 298 279 281 290 294 301 302 307 315 319 321 321 320 318 317 317 315 313 313 312 311 310 310
190 189 186 184 183 183 182 175 171 173 171 169 171 163 149 116 155 189 270 301 310 278 265 268 273 279 284 290 304 312 315 317 317 316 315 314 312 311 310 310 309 310 309
188 189 186 185 185 183 183 182 179 178 180 174 173 170 169 172 191 189 228 260 281 285 283 269 257 262 272 279 294 308 312 314 314 313 312 311 309 308 307 307 307 308 307
190 193 187 186 186 187 182 176 177 182 181 181 186 191 191 192 172 173 193 239 265 288 298 282 252 257 267 274 290 303 307 309 310 311 309 308 306 305 304 304 305 305 304
194 187 186 187 186 182 178 175 180 185 182 188 192 190 193 200 184 178 180 185 264 290 281 273 281 256 261 273 286 297 298 303 307 307 306 304 303 302 302 302 302 302 301
181 179 183 184 183 180 177 173 184 186 182 191 194 194 198 200 192 193 186 178 189 257 277 264 268 269 269 276 283 287 287 296 302 304 304 302 301 301 300 301 300 299 298
173 174 180 182 181 180 176 176 181 180 182 192 188 191 202 201 195 193 195 198 196 209 252 252 249 258 274 281 287 290 287 294 300 302 302 300 300 300 300 300 299 298 297
172 177 182 180 181 181 178 180 185 179 188 195 191 197 211 198 197 200 197 203 210 205 248 268 249 259 262 268 283 285 286 285 287 296 299 299 299 300 300 302 301 300 299
176 177 175 176 180 182 180 184 188 186 190 198 202 201 215 203 208 208 207 216 221 216 230 267 273 264 257 262 268 277 285 286 283 292 296 298 299 300 303 304 303 302 301
170 169 170 178 182 181 181 187 186 187 195 201 200 205 213 203 220 222 220 225 230 234 228 251 273 265 266 268 278 279 279 282 287 290 294 296 296 299 303 305 305 304 304
165 169 175 177 176 173 175 178 179 187 194 199 203 209 210 209 222 226 229 232 232 235 237 250 268 273 268 267 264 276 287 274 281 288 287 288 293 300 303 305 306 305 305
161 162 160 158 158 163 175 176 180 183 187 199 212 218 220 226 234 235 238 232 225 234 241 252 266 275 275 275 270 264 280 285 276 266 271 279 288 290 294 298 302 301 302
144 144 153 157 160 175 189 188 179 177 185 197 217 230 236 242 253 264 269 267 258 250 250 251 262 268 273 267 268 272 278 289 289 255 260 279 274 278 283 284 292 299 303
144 147 154 157 167 181 182 185 181 168 181 198 210 224 243 253 269 268 280 287 286 283 279 272 266 267 271 270 272 277 273 275 280 278 278 280 268 275 282 290 300 302 306
147 151 152 155 150 163 172 176 173 157 169 191 207 216 233 257 269 274 255 266 267 272 279 277 257 264 266 270 264 272 279 283 277 270 249 269 274 273 288 290 297 303 312
137 137 139 139 139 148 160 160 145 137 157 201 225 231 245 253 282 295 284 274 278 277 284 288 290 294 300 305 306 302 299 297 295 281 239 253 280 288 285 281 290 306 315
131 125 116 123 129 131 130 132 128 135 153 206 268 274 286 293 298 304 287 270 279 280 283 296 302 307 306 306 309 305 279 285 289 286 268 264 280 307 303 282 280 296 305
Height
1541 1543 1544 1545 1546 1547 1548 1548 1548 1549 1549 1548 1548 1547 1547 1546 1545 1544 1544 1543 1542 1542 1541 1541 1540 1539 1538 1537 1536 1534 1533 1532 1530 1529 1528 1526 1525 1524 1522 1521 1520 1519 1518
1540 1542 1543 1545 1546 1547 1547 1548 1548 1548 1548 1548 1547 1546 1546 1545 1544 1543 1543 1542 1541 1541 1540 1539 1538 1538 1537 1536 1535 1533 1532 1530 1529 1528 1526 1525 1523 1521 1520 1519 1518 1516 1515
1539 1540 1542 1543 1545 1546 1546 1547 1547 1547 1547 1547 1546 1546 1545 1544 1543 1543 1542 1541 1540 1540 1539 1538 1537 1536 1535 1534 1533 1532 1530 1529 1527 1526 1524 1523 1521 1519 1518 1517 1515 1514 1512
1537 1539 1540 1542 1543 1544 1545 1546 1546 1546 1546 1546 1545 1545 1544 1543 1542 1542 1541 1540 1539 1539 1538 1537 1536 1535 1534 1533 1531 1530 1528 1527 1526 1524 1522 1521 1519 1517 1516 1514 1513 1511 1509
1535 1536 1538 1540 1541 1542 1543 1544 1545 1545 1545 1545 1544 1543 1543 1542 1541 1540 1540 1539 1538 1537 1536 1535 1534 1533 1532 1530 1529 1528 1526 1525 1523 1522 1520 1518 1516 1515 1513 1511 1510 1508 1507
1532 1534 1536 1538 1539 1540 1541 1542 1543 1543 1543 1543 1543 1542 1541 1540 1540 1539 1539 1538 1537 1536 1535 1534 1533 1531 1530 1528 1527 1525 1524 1522 1521 1519 1517 1516 1514 1512 1510 1508 1507 1505 1503
1529 1531 1533 1535 1536 1538 1539 1540 1541 1541 1542 1541 1541 1540 1540 1539 1538 1538 1537 1536 1535 1534 1533 1532 1531 1529 1528 1526 1524 1522 1520 1519 1518 1516 1514 1512 1511 1509 1507 1505 1503 1501 1499
1526 1528 1530 1532 1534 1535 1536 1537 1538 1539 1539 1539 1539 1539 1538 1538 1536 1536 1535 1534 1534 1533 1531 1530 1528 1527 1525 1523 1521 1519 1517 1515 1514 1512 1511 1509 1507 1505 1503 1501 1499 1497 1495
1522 1524 1527 1529 1531 1532 1533 1535 1535 1536 1537 1537 1537 1537 1536 1535 1534 1533 1533 1532 1531 1530 1529 1527 1526 1524 1522 1520 1518 1516 1514 1511 1510 1508 1507 1505 1503 1501 1499 1497 1495 1493 1490
1517 1520 1523 1525 1527 1529 1530 1531 1532 1533 1534 1534 1534 1534 1534 1533 1532 1530 1530 1529 1528 1527 1526 1524 1522 1521 1519 1516 1514 1512 1510 1507 1505 1503 1502 1500 1498 1496 1494 1492 1490 1487 1485
1513 1516 1518 1521 1523 1525 1526 1528 1529 1530 1530 1531 1531 1531 1530 1530 1529 1528 1526 1525 1524 1524 1522 1521 1519 1517 1515 1512 1510 1508 1505 1503 1501 1499 1496 1494 1492 1490 1488 1486 1484 1481 1479
1508 1511 1514 1516 1519 1521 1522 1524 1525 1526 1526 1527 1527 1527 1527 1527 1526 1525 1523 1520 1519 1519 1518 1516 1514 1513 1510 1508 1506 1503 1501 1498 1496 1493 1491 1488 1486 1484 1481 1479 1477 1475 1472
1502 1506 1509 1512 1514 1516 1518 1519 1521 1521 1522 1523 1523 1523 1523 1523 1522 1521 1519 1517 1515 1513 1512 1511 1510 1508 1506 1503 1501 1498 1496 1493 1490 1488 1485 1482 1480 1477 1475 1473 1470 1468 1466
1498 1501 1504 1507 1509 1512 1513 1515 1516 1517 1518 1518 1519 1519 1519 1519 1518 1517 1516 1514 1510 1508 1506 1506 1504 1503 1501 1498 1495 1493 1490 1487 1484 1482 1479 1476 1473 1471 1468 1466 1463 1461 1458
1494 1497 1500 1502 1505 1507 1508 1510 1511 1512 1513 1514 1514 1514 1514 1514 1513 1512 1511 1510 1508 1503 1500 1499 1499 1498 1496 1493 1490 1487 1484 1481 1478 1475 1472 1469 1467 1464 1461 1459 1456 1453 1451
1489 1492 1495 1497 1500 1502 1503 1505 1506 1507 1508 1509 1509 1509 1509 1509 1508 1507 1506 1505 1503 1500 1495 1493 1493 1492 1490 1487 1485 1481 1478 1475 1472 1469 1466 1463 1460 1457 1454 1451 1449 1446 1443
1484 1487 1490 1492 1494 1496 1498 1500 1501 1502 1503 1504 1504 1504 1504 1504 1503 1502 1501 1499 1498 1495 1490 1487 1487 1485 1483 1481 1478 1475 1472 1468 1465 1462 1459 1456 1453 1450 1447 1444 1441 1438 1436
1480 1482 1485 1487 1489 1491 1493 1495 1496 1497 1498 1499 1499 1499 1499 1499 1498 1497 1495 1494 1492 1490 1486 1481 1480 1478 1476 1474 1471 1468 1465 1462 1458 1455 1452 1449 1446 1443 1440 1437 1434 1431 1428
1475 1477 1480 1482 1484 1486 1488 1490 1491 1492 1493 1494 1494 1494 1494 1493 1492 1491 1490 1488 1486 1484 1481 1477 1473 1471 1469 1467 1464 1461 1458 1455 1451 1448 1445 1442 1439 1436 1433 1430 1426 1423 1420
1470 1473 1476 1478 1480 1482 1483 1485 1486 1487 1488 1488 1489 1489 1488 1487 1486 1485 1484 1482 1480 1477 1475 1471 1467 1465 1462 1460 1457 1453 1449 1446 1444 1441 1438 1435 1432 1429 1426 1422 1419 1416 1413
1466 1469 1471 1473 1475 1477 1479 1480 1481 1482 1483 1483 1483 1483 1483 1482 1481 1479 1478 1476 1474 1471 1468 1465 1462 1458 1456 1453 1450 1446 1442 1438 1435 1434 1430 1428 1425 1422 1419 1415 1412 1409 1406
1463 1465 1467 1469 1471 1472 1474 1475 1476 1477 1478 1478 1478 1478 1478 1477 1475 1474 1472 1470 1468 1466 1462 1459 1456 1453 1449 1447 1444 1441 1437 1432 1428 1427 1423 1420 1419 1415 1412 1409 1406 1403 1400
1459 1461 1463 1465 1467 1469 1470 1471 1472 1472 1473 1473 1473 1472 1472 1471 1469 1468 1466 1464 1462 1460 1457 1454 1450 1447 1444 1441 1438 1434 1431 1427 1424 1421 1417 1412 1411 1408 1406 1403 1400 1397 1394
1455 1457 1460 1461 1463 1465 1466 1466 1467 1468 1468 1468 1468 1467 1466 1465 1463 1461 1459 1457 1455 1453 1451 1448 1445 1441 1438 1435 1433 1429 1426 1421 1418 1416 1413 1408 1405 1402 1400 1397 1394 1392 1389
1452 1454 1456 1458 1459 1461 1461 1462 1463 1463 1463 1463 1463 1462 1460 1459 1457 1455 1453 1450 1447 1446 1444 1441 1439 1436 1433 1430 1428 1424 1420 1416 1411 1409 1407 1404 1400 1396 1393 1391 1390 1387 1385
1449 1451 1453 1455 1456 1457 1458 1458 1458 1458 1458 1458 1458 1457 1455 1453 1452 1449 1447 1444 1441 1439 1436 1434 1432 1429 1427 1424 1421 1419 1415 1411 1407 1404 1402 1400 1396 1393 1388 1386 1385 1383 1380